Погода в Санту-Андре

Бразилия     23°44′09″S   46°29′47″W
темп.,
°C
ветер,
м/с
пор.,
м/с
влажн.,
%
обл.,
%
осадки,
мм/ч
давл.,
гПа
погр.,
м
28 сентября, вт
вт2800:00+18ссв23640 0.0 101978
03:00+18св12580 0.0 101739
06:00+17ссв11610 0.0 101834
09:00+24всв11390 0.0 1019456
12:00+29ююв22280 0.0 10171132
15:00+28юв43370 0.0 10131072
18:00+22ююв35520 0.0 1013177
21:00+22в24450 0.0 1015137
29 сентября, ср
ср2900:00+21ссв364284 0.0 1013143
03:00+20св265584 0.0 1012171
06:00+17юз246770 0.0 1015174
09:00+21ююв436878 0.0 1016584
12:00+23ююв336095 0.0 1015930
15:00+24юв5459100 0.0 1012663
18:00+20ююв567818 0.0 1013354
21:00+17юв348975 0.0 1016338
30 сентября, чт
чт3000:00+17ююв238818 0.0 1016264
03:00+16ююв249233 0.0 1014224
06:00+16ююв249490 0.0 1016240
09:00+19юв348067 0.1 1017555
12:00+22ююв437073 0.1 1015787
15:00+21ююв447132 0.2 1012650
18:00+18ююв458865 0.1 1013430
21:00+18вюв349182 0.2 1015360
1 октября, пт
пт100:00+18св248529 0.0 1013223
03:00+17юв129191 0.1 1012151
06:00+17в249075 0.0 1012156
09:00+21вюв2368100 0.0 1013459
12:00+20ю4581100 0.1 1014596
15:00+19ююв3486100 1.2 1012499
18:00+19всв3587100 1.6 1011215
21:00+19ююв2485100 1.6 1013164
2 октября, сб
сб200:00+18ю3598100 0.4 1014265
03:00+18с2593100 0.8 1012142
06:00+18в1288100 0.1 101268
09:00+19юв3392100 0.6 1014343
12:00+22ююв447998 1.3 1013540
15:00+19ююв359292 1.8 1012415
18:00+18ююв479797 1.0 1011321
21:00+18юв3598100 2.5 1014318